Simultaneous Nadir Overpasses (SNOs) Predictions

Prediction of SNOs between NOAA-19 and TERRA Satellite Orbit:

Table of predicted SNOs for the next 14.0 days since TLE Epoch: 6/14/2025
Index Date (NOAA-19) Time (NOAA-19) Lat,Lon (NOAA-19) SZA (NOAA-19 ) Date (TERRA) Time (TERRA) Lat,Lon (TERRA) SZA (TERRA ) Distance(km) Time Diff (sec)
1 06/15/2025 15:53:08 77.91, 41.58 69.23 06/15/2025 15:52:57 77.93, 41.46 69.20 2.98 11
2 06/17/2025 18:00:37 -78.31,-172.44 111.38 06/17/2025 18:01:38 -78.29,-172.38 111.32 1.84 61
3 06/17/2025 18:51:23 78.02, -3.50 69.02 06/17/2025 18:50:51 78.01, -3.43 69.00 1.80 32
4 06/19/2025 20:58:49 -78.30, 143.08 111.42 06/19/2025 20:59:30 -78.31, 143.07 111.39 0.72 41
5 06/19/2025 21:49:34 77.97, -47.74 69.03 06/19/2025 21:48:42 77.98, -47.78 68.98 1.22 52
6 06/21/2025 23:57:02 -78.34, 98.34 111.49 06/21/2025 23:57:22 -78.33, 98.45 111.45 2.50 20
7 06/22/2025 00:47:47 78.00, -92.44 68.97 06/22/2025 00:46:34 78.00, -92.39 68.92 1.18 73
8 06/24/2025 02:55:12 -78.27, 54.24 111.38 06/24/2025 02:55:12 -78.28, 54.18 111.40 1.77 0



Historial Predications of SNOs between NOAA-19 and TERRA
